Weather History for Lake Charles, LA

Change the Weather History Date:

Tuesday, October 8, 2013

  Actual Average Record
Temperature  
Mean Temperature 66 °F -  
Max Temperature 77 °F 79 °F 89 °F (2007)
Min Temperature 55 °F 63 °F 44 °F (2000)
Cooling Degree Days 1    
Growing Degree Days 16 (Base 50)    
Moisture  
Dew Point 54 °F    
Average Humidity 77    
Maximum Humidity 100    
Minimum Humidity 44    
Precipitation  
Precipitation 0.00 in - - ()
Sea Level Pressure  
Sea Level Pressure 30.06 in    
Wind  
Wind Speed 2 mph (NNE)    
Max Wind Speed 7 mph    
Max Gust Speed -    
Visibility 10 miles    
Events      
Averages and records for this station are not official NWS values.
T = Trace of Precipitation, MM = Missing Value Source: NWS Daily Summary

Daily Weather History Graph

Daily Weather History Graph

Search for Another Location

Airport:

Trip Planner

Search our weather history database for the weather conditions in past years. The results will help you decide how hot, cold, wet, or windy it might be!

Date:

Astronomy

Oct. 08, 2013 Rise Set
Actual Time 7:10 AM CDT 6:49 PM CDT
Civil Twilight 6:46 AM CDT 7:13 PM CDT
Nautical Twilight 6:18 AM CDT 7:40 PM CDT
Astronomical Twilight 5:50 AM CDT 8:08 PM CDT
Moon 10:49 AM CDT (10/8) 9:42 PM CDT (10/8)
Length of Visible Light 12h 26m
Length of Day
11h 38m
Waxing Crescent, 16% of the Moon is Illuminated
Oct 8
Waxing Crescent
Oct 11
First Quarter
Oct 18
Full
Oct 26
Last Quarter
Nov 3
New

Hourly Weather History & Observations

Time (CDT) Temp. Dew Point Humidity Pressure Visibility Wind Dir Wind Speed Gust Speed Precip Events Conditions
12:15 AM 59.2 °F 53.1 °F 80% 30.07 in 10.0 mi Calm Calm - N/A   Clear
12:35 AM 57.6 °F 54.9 °F 91% 30.07 in 10.0 mi Calm Calm - N/A   Clear
12:55 AM 57.0 °F 52.7 °F 85% 30.07 in 10.0 mi Calm Calm - N/A   Clear
1:15 AM 57.7 °F 53.4 °F 85% 30.07 in 10.0 mi North 3.5 mph - N/A   Clear
1:35 AM 58.1 °F 51.8 °F 80% 30.07 in 10.0 mi North 4.6 mph - N/A   Clear
1:55 AM 57.7 °F 52.3 °F 82% 30.07 in 10.0 mi Calm Calm - N/A   Clear
2:15 AM 57.7 °F 51.8 °F 81% 30.07 in 10.0 mi NNE 3.5 mph - N/A   Clear
2:35 AM 59.0 °F 52.2 °F 78% 30.06 in 10.0 mi NNE 4.6 mph - N/A   Clear
2:55 AM 59.4 °F 52.7 °F 79% 30.06 in 10.0 mi NE 4.6 mph - N/A   Clear
3:15 AM 59.0 °F 52.3 °F 79% 30.06 in 10.0 mi NE 4.6 mph - N/A   Clear
3:35 AM 58.5 °F 52.7 °F 81% 30.06 in 10.0 mi NE 4.6 mph - N/A   Clear
3:55 AM 58.3 °F 52.7 °F 82% 30.05 in 10.0 mi NE 3.5 mph - N/A   Clear
4:15 AM 58.5 °F 52.9 °F 82% 30.06 in 10.0 mi NE 4.6 mph - N/A   Clear
4:35 AM 58.3 °F 52.9 °F 82% 30.06 in 10.0 mi NE 4.6 mph - N/A   Clear
4:55 AM 57.7 °F 52.7 °F 83% 30.06 in 10.0 mi NNE 5.8 mph - N/A   Clear
5:15 AM 57.2 °F 52.5 °F 84% 30.07 in 5.0 mi NNE 3.5 mph - N/A   Clear
5:35 AM 57.4 °F 52.5 °F 84% 30.07 in 10.0 mi NNE 3.5 mph - N/A   Clear
5:55 AM 56.3 °F 52.2 °F 86% 30.07 in 10.0 mi NNE 3.5 mph - N/A   Clear
6:00 AM 57.2 °F 53.6 °F 88% 30.07 in 10.0 mi NNE 6.9 mph - N/A   Clear
6:15 AM 55.8 °F 53.2 °F 91% 30.07 in 10.0 mi North 3.5 mph - N/A   Clear
6:35 AM 55.9 °F 53.2 °F 91% 30.07 in 10.0 mi North 3.5 mph - N/A   Clear
6:55 AM 55.4 °F 53.6 °F 94% 30.08 in 10.0 mi North 5.8 mph - N/A   Clear
7:50 AM 55.4 °F 55.4 °F 100% 30.09 in 10.0 mi North 3.5 mph - N/A   Clear
8:47 AM 60.8 °F 55.4 °F 82% 30.10 in 10.0 mi North 3.5 mph - N/A   Clear
9:57 AM 60.8 °F 55.4 °F 82% 30.11 in 10.0 mi NNE 5.8 mph - N/A   Clear
11:58 AM 71.6 °F 53.6 °F 53% 30.10 in 10.0 mi Calm Calm - N/A   Clear
12:50 PM 73.4 °F 51.8 °F 47% 30.09 in 10.0 mi Variable 3.5 mph - N/A   Clear
1:50 PM 75.2 °F 53.6 °F 47% 30.06 in 10.0 mi Variable 4.6 mph - N/A   Clear
2:50 PM 77.0 °F 53.6 °F 44% 30.03 in 10.0 mi Variable 3.5 mph - N/A   Clear
3:50 PM 77.0 °F 53.6 °F 44% 30.02 in - Variable 3.5 mph - N/A   Clear
4:50 PM 77.0 °F 53.6 °F 44% 30.02 in 10.0 mi Variable 4.6 mph - N/A   Clear
5:50 PM 75.2 °F 53.6 °F 47% 30.02 in 10.0 mi Calm Calm - N/A   Clear
6:50 PM 71.6 °F 55.4 °F 57% 30.02 in 10.0 mi Variable 3.5 mph - N/A   Clear
7:50 PM 66.2 °F 57.2 °F 73% 30.03 in 10.0 mi Calm Calm - N/A   Clear
8:50 PM 64.4 °F 57.2 °F 77% 30.05 in 10.0 mi Calm Calm - N/A   Clear
9:50 PM 62.6 °F 62.6 °F 100% 30.05 in 10.0 mi Calm Calm - N/A   Clear
10:55 PM 62.8 °F 57.2 °F 82% 30.05 in 10.0 mi Calm Calm - N/A   Clear
11:15 PM 62.2 °F 57.4 °F 84% 30.05 in 10.0 mi Calm Calm - N/A   Clear
11:35 PM 61.0 °F 57.0 °F 87% 30.05 in 10.0 mi Calm Calm - N/A   Clear
11:55 PM 61.9 °F 56.5 °F 82% 30.05 in 10.0 mi Calm Calm - N/A   Clear